Torna al catalogo

STARLINK-3636

AttivoComunicazioniVLEO
NORAD 51995·PAYLOAD·🇺🇸 United States

Lanciato Mar 9, 2022 da Cape Canaveral Space Force Station

Loading…

Prossimi Passaggi (prossime 24 ore)

TLE

AggiornatoSource: CelesTrak SupGP

Epoca: Sep 15, 2026, 01:25 UTC

1 51995C 22025AR  26258.05951389 -.00023753  00000+0 -76378-3 0  2586
2 51995  53.1568 236.2499 0001331  94.9311  32.4966 15.31715801    12

Traccia STARLINK-3636 in tempo reale con AllMySat

Download on the App Store